Location: Ash Swamp
(41.5170°N, 74.6157°W)
Time: 17:21:19
(UTC+00:00)

Cosmos 1850 Rocket - Pass Details

Date: 14 July 2020
Orbit: 754 x 785 km, 74.0° (Epoch: 04 August)

Event Time Altitude Azimuth Distance (km) Brightness Sun altitude
Exits shadow 07:47:36 23° 191° (S) 1,620 5.2 -16.5°
Maximum altitude 07:51:00 78° 108° (ESE) 805 4.1 -16.0°
Drops below altitude 10° 07:56:21 10° 22° (NNE) 2,350 7.7 -15.4°
Sets 07:58:44 0° 21° (NNE) 3,280 8.7 -15.1°
